Location: Unspecified
(0.0000°N, 0.0000°E)
Time: 16:36:13
(UTC+00:00)

Vanguard 3 - Pass Details

Date: 04 February 2023
Orbit: 509 x 3249 km, 33.3° (Epoch: 20 March)

Event Time Altitude Azimuth Distance (km) Brightness Sun altitude
Rises 13:33:03 0° 217° (SW) 2,615 10.1 64.6°
Reaches altitude 10° 13:35:22 10° 204° (SSW) 1,717 9.4 64.2°
Maximum altitude 13:38:36 28° 142° (SE) 1,033 8.1 63.6°
Drops below altitude 10° 13:42:26 10° 81° (E) 2,055 9.1 62.8°
Sets 13:45:28 0° 70° (ENE) 3,261 10.0 62.2°
